Exeter, United Kingdom

12:37 PM GMT on January 18, 2017 (GMT +0000)
Exeter

Weather History for EGTE - October, 2012

Change the Weather History Date:

Sunday, October 28, 2012

  Actual Average Record
Temperature  
Mean Temperature 42 °F -  
Max Temperature 51 °F 51 °F 64 °F (2006)
Min Temperature 33 °F 39 °F 28 °F (2003)
Degree Days  
Heating Degree Days 23    
Moisture  
Dew Point 41 °F    
Average Humidity 84    
Maximum Humidity 100    
Minimum Humidity 67    
Precipitation  
Precipitation 0.02 in - - ()
Sea Level Pressure  
Sea Level Pressure 29.98 in    
Wind  
Wind Speed 5 mph ()    
Max Wind Speed 14 mph    
Max Gust Speed -    
Visibility 6.2 miles    
Events Rain    
Averages and records for this station are not official NWS values.
T = Trace of Precipitation, MM = Missing Value Source: Averaged Metar Reports

Daily Weather History Graph

Daily Weather History Graph

Search for Another Location

Airport or City:

Trip Planner

Search our weather history database for the weather conditions in past years. The results will help you decide how hot, cold, wet, or windy it might be!

Date:

Astronomy

Oct. 28, 2012 Rise Set
Actual Time 6:58 AM GMT 4:55 PM GMT
Civil Twilight 6:24 AM GMT 5:29 PM GMT
Nautical Twilight 5:46 AM GMT 6:07 PM GMT
Astronomical Twilight 5:08 AM GMT 6:45 PM GMT
Moon 4:07 PM GMT (10/28) 5:33 AM GMT (10/28)
Length of Visible Light 11h 04m
Length of Day
9h 56m
Waxing Gibbous, 98% of the Moon is Illuminated
Oct 28
Waxing Gibbous
Oct 29
Full
Nov 7
Last Quarter
Nov 13
New
Nov 20
First Quarter

Hourly Weather History & Observations

Time (GMT) Temp. Windchill Dew Point Humidity Pressure Visibility Wind Dir Wind Speed Gust Speed Precip Events Conditions
12:20 AM 33.8 °F - 30.2 °F 87% 30.21 in - Variable 2.3 mph - N/A   Clear
12:50 AM 34 °F - 33 °F 95%  in - North 3.5 mph - -  
12:50 AM 33.8 °F - 30.2 °F 87% 30.21 in - Variable 1.2 mph - N/A   Clear
2:50 AM 33 °F - 32 °F 94%  in - NNE 1.2 mph - -  
6:20 AM 33.8 °F - 32.0 °F 93% 30.09 in 6.2 mi Calm Calm - N/A   Scattered Clouds
6:50 AM 33.8 °F - 32.0 °F 93% 30.09 in 6.2 mi Calm Calm - N/A   Mostly Cloudy
7:20 AM 33.8 °F - 33.8 °F 100% 30.09 in 6.2 mi ENE 1.2 mph - N/A   Scattered Clouds
7:50 AM 35.6 °F - 33.8 °F 93% 30.06 in 6.2 mi Calm Calm - N/A   Scattered Clouds
8:20 AM 37.4 °F - 35.6 °F 93% 30.06 in 6.2 mi Calm Calm - N/A   Scattered Clouds
8:50 AM 41 °F - 41 °F 98%  in - NE 3.5 mph - -  
8:50 AM 39.2 °F - 39.2 °F 100% 30.06 in 6.2 mi Variable 1.2 mph - N/A   Scattered Clouds
9:20 AM 39.2 °F - 39.2 °F 100% 30.06 in 6.2 mi Calm Calm - N/A   Scattered Clouds
9:50 AM 41.0 °F 39.0 °F 41.0 °F 100% 30.04 in 6.2 mi Variable 3.5 mph - N/A   Mostly Cloudy
10:20 AM 46.4 °F 42.4 °F 42.8 °F 87% 30.04 in 6.2 mi West 8.1 mph - N/A   Mostly Cloudy
10:50 AM 50.0 °F - 42.8 °F 76% 30.04 in 6.2 mi West 8.1 mph - N/A   Scattered Clouds
11:20 AM 50.0 °F - 42.8 °F 76% 30.04 in 6.2 mi West 10.4 mph - N/A   Scattered Clouds
11:50 AM 51 °F - 44 °F 68%  in - West 10.4 mph - -  
11:50 AM 51.8 °F - 42.8 °F 71% 30.01 in 6.2 mi West 13.8 mph - N/A   Scattered Clouds
12:20 PM 50.0 °F - 42.8 °F 76% 30.01 in 6.2 mi West 9.2 mph - N/A   Scattered Clouds
12:50 PM 51.8 °F - 42.8 °F 71% 30.01 in 6.2 mi West 9.2 mph - N/A   Scattered Clouds
1:20 PM 51.8 °F - 41.0 °F 67% 29.98 in 6.2 mi WSW 10.4 mph - N/A   Scattered Clouds
1:50 PM 51.8 °F - 42.8 °F 71% 29.98 in 6.2 mi WSW 11.5 mph - N/A Rain Light Rain
2:20 PM 50.0 °F - 44.6 °F 82% 29.98 in 6.2 mi West 12.7 mph - N/A Rain Light Rain
2:50 PM 49 °F - 46 °F 87%  in - WSW 6.9 mph - -  
2:50 PM 48.2 °F - 44.6 °F 87% 29.95 in 6.2 mi SW 6.9 mph - N/A   Partly Cloudy
3:20 PM 48.2 °F - 44.6 °F 87% 29.95 in 6.2 mi SW 5.8 mph - N/A Rain Light Rain
3:50 PM 48.2 °F - 44.6 °F 87% 29.95 in 6.2 mi WSW 12.7 mph - N/A Rain Light Rain
4:20 PM 48.2 °F - 44.6 °F 87% 29.92 in 6.2 mi WSW 6.9 mph - N/A   Partly Cloudy
4:50 PM 48.2 °F - 44.6 °F 87% 29.92 in 6.2 mi SW 6.9 mph - N/A   Partly Cloudy
5:20 PM 48.2 °F - 42.8 °F 82% 29.92 in 6.2 mi SW 6.9 mph - N/A   Scattered Clouds
5:50 PM 48 °F - 44 °F 79%  in - SW 6.9 mph - -  
5:50 PM 48.2 °F - 42.8 °F 82% 29.92 in 6.2 mi SW 8.1 mph - N/A   Mostly Cloudy
6:20 PM 48.2 °F - 42.8 °F 82% 29.92 in 6.2 mi SW 8.1 mph - N/A   Scattered Clouds
6:50 PM 48.2 °F - 42.8 °F 82% 29.92 in 6.2 mi SW 5.8 mph - N/A   Scattered Clouds
7:20 PM 48.2 °F - 42.8 °F 82% 29.89 in 6.2 mi SW 9.2 mph - N/A   Scattered Clouds
7:50 PM 48.2 °F - 42.8 °F 82% 29.89 in 6.2 mi SW 11.5 mph - N/A   Scattered Clouds
8:20 PM 48.2 °F - 42.8 °F 82% 29.89 in 6.2 mi SW 10.4 mph - N/A   Scattered Clouds
8:50 PM 48 °F - 43 °F 77%  in - WSW 10.4 mph - -  
8:50 PM 48.2 °F - 42.8 °F 82% 29.89 in 6.2 mi SW 13.8 mph - N/A   Partly Cloudy
9:20 PM 48.2 °F - 42.8 °F 82% 29.86 in - SSW 13.8 mph - N/A   Clear
9:50 PM 48.2 °F - 42.8 °F 82% 29.86 in - SW 12.7 mph - N/A   Clear
10:20 PM 48.2 °F - 41.0 °F 76% 29.86 in - SSW 12.7 mph - N/A   Clear
10:50 PM 48.2 °F - 41.0 °F 76% 29.86 in - SSW 11.5 mph - N/A   Clear